Regional Weather Roundup
Issued by NWS Charleston, SC

Current Version | Previous Version | Graphics & Text | Print | Product List | Glossary On
Versions: 1 2 3 4 5 6 7 8 9 10 11 12 13 14 15 16 17 18 19 20 21 22 23 24 25 26 27 28 29 30 31 32 33 34 35 36 37 38 39 40 41 42 43 44 45 46 47 48 49 50
000
ASUS42 KCHS 231710
RWRCHS

REGIONAL WEATHER ROUNDUP
NATIONAL WEATHER SERVICE CHARLESTON SC
100 PM EDT WED APR 23 2014

NOTE: "FAIR" INDICATES FEW OR NO CLOUDS BELOW 12,000 FEET WITH NO
SIGNIFICANT WEATHER AND/OR OBSTRUCTIONS TO VISIBILITY.

NOT ALL STATIONS ARE QUALITY CONTROLLED BY THE NATIONAL
WEATHER SERVICE. USE DATA WITH CAUTION...ESPECIALLY
DEWPOINT OBSERVATIONS.

SCZ027-030-031-034>040-042>050-231800-
...SOUTH CAROLINA...

CITY           SKY/WX    TMP DP  RH WIND       PRES   REMARKS
N CHARLESTON   MOSUNNY   81  58  45 VRB3      29.85F
WATERFRONT PRK   N/A     73 N/A N/A SE6         N/A
FORT JOHNSON   NOT AVBL
MOUNT PLEASANT FAIR      79  57  47 NW10      29.86F
JOHNS ISLAND   SUNNY     82  61  47 W10       29.86F
PINOPOLIS        N/A     75  61  60 CALM      29.78F
MONCKS CORNER  FAIR      77  61  57 N6        29.86F
SUMMERVILLE    NOT AVBL
BEAUFORT MCAS  SUNNY     79  58  48 N7        29.87F
BEAUFORT ARPT  FAIR      79  63  57 W6        29.86F
HILTON HEAD IS SUNNY     79  63  57 NW7       29.89F
GEORGETOWN     NOT AVBL
WALTERBORO     SUNNY     79  59  50 W8        29.87F
ORANGEBURG     SUNNY     77  50  38 NW13      29.87F
BARNWELL       FAIR      79  52  38 W6        29.87F
AIKEN          FAIR      77  55  47 W8        29.92S
MANNING        FAIR      79  55  44 NW7       29.86F
KINGSTREE      NOT AVBL
COLUMBIA       MOSUNNY   76  47  35 NW12      29.87F
SUMTER         SUNNY     76  47  35 NW8       29.84F
FLORENCE       SUNNY     76  46  34 NW10      29.84F
MYRTLE BEACH   SUNNY     75  48  38 W14       29.83F
N MYRTLE BEACH SUNNY     77  48  35 W8        29.82F

$$

GAZ063-065-086>088-099>101-113>116-118-119-134-136>141-150-231800-
...GEORGIA...

CITY           SKY/WX    TMP DP  RH WIND       PRES   REMARKS
SAVANNAH ARPT  SUNNY     79  60  52 W7        29.88F
HUNTER AAF     SUNNY     78  63  58 VRB6      29.87F
FORT STEWART   SUNNY     78  65  65 W8        29.89F
STATESBORO     NOT AVBL
SYLVANIA       SUNNY     79  51  37 W9        29.89F
CLAXTON        FAIR      79  63  57 NW10      29.90F
THOMSON        SUNNY     76  50  41 NW6       29.94S
AUGUSTA-BUSH   SUNNY     77  54  44 N5        29.88F
AUGUSTA-DANIEL SUNNY     76  53  44 VRB3      29.90S
SWAINSBORO     FAIR      77  55  47 W13       29.90F
VIDALIA        SUNNY     77  61  57 NW7G16    29.91F
ALMA           SUNNY     79  58  48 NW7       29.91F
WAYCROSS       NOT AVBL
JESUP          FAIR      77  61  57 N5        29.91F
BRUNSWICK      PTSUNNY   81  61  50 W9        29.90F
SAINT SIMONS   MOSUNNY   80  60  50 W8G16     29.90F

$$

SCZ027-028-034-036>038-045-046-048>050-GAZ119-141-231800-
...LAKE AND SUPPLEMENTAL COASTAL OBSERVATIONS...

STATION/POSITION TIME  TEMP    WIND        PRES    WAVE   SWELL
                       AIR SEA DIR/SP/G            HT/PER HT/PER/DIR
                 (UTC) (F)     (DEG/KT/KT) (MB)    (FT/S) (FT/S/D)
UPR LAKE MARION  NOT AVBL
WINYAH BAY       1600   73     300/  7     1011.0S
LAKE MURRAY      1600   71     270/  4/  6 1011.5F
ACE BASIN NERRS  1600   77     320/  3     1012.0S
FORT PULASKI     NOT AVBL
SAPELO ISLAND    1600   77     290/  8     1013.0F

$$

ANZ835-935-AMZ111-154-330-350-352-354-374-450-454-472-231800-
...C-MAN AND BUOY OBSERVATIONS...

STATION/POSITION TIME  TEMP    WIND        PRES    WAVE   SWELL
                       AIR SEA DIR/SP/G            HT/PER HT/PER/DIR
                 (UTC) (F)     (DEG/KT/KT) (MB)    (FT/S) (FT/S/D)
FOLLY BEACH CMAN 1600   71     160/  7/  8 1012.0S
BUOY 41004       1700   65 68  270/ 10/ 10 1011.1F   3/ 8   2/ 8
BUOY 41008       1700   67 66  260/  4/  4 1012.4F   2/ 8   2/100/ 8
5E ST. MARYS GA  1700      66                N/A     2/ 8
FRYING PAN BUOY  1700   65 68  260/ 10/ 10 1009.8F   3/ 9   2/100/ 9
BUOY 41025       1700   60 75   10/ 17/ 21 1008.1F   7/ 6   2/100/ 9
CAPE LOOKOUT NC  1600   60      80/ 12/ 13 1008.9F
BUOY 41002       NOT AVBL
BUOY 41010       1700   74 76  270/ 10/ 14 1013.1F   3/ 9   3/ 80/ 9
BUOY 41012       NOT AVBL
ST AUGUSTINE FL  1700   71      80/  6/  7 1013.8F
CAPERS NEARSHORE NOT AVBL
FRIPP NEARSHORE  1600   68     230/  6/  8   N/A


$$


USA.gov is the U.S. government's official web portal to all federal, state and local government web resources and services.